PSLV R/B, 41878

Orbit data source: Space-Track

PSLV R/B, 41878 is space debris in SSO originally from a launch on Wed, 07 Dec 2016 UTC launched from the Sirharikota (SRI). Debris objects in space refer to the collection of defunct objects orbiting the Earth. Examples of debris include non-operational satellites, rocket bodies, and fragments generated from explosions, collisions, or faulty payload assembly.

Loading next visibility...
Identifier
41878, 2016-074B
Orbit
SSO
Country
Flag of ININ / IND
Related business
Manufacturer
VSSC/LPSC
Mission
Spacecraft
Bus & Motor
PS-4, Unknown motor
Mass
920 kg wet, 920 kg dry
Launch date (UTC)
2016-12-07 (9 years ago)
Launch vehicle
Unknown
Launch site
Sirharikota (SRI)
Object type
Payload
Rocket body
Debris
Shape & HBR
Cyl + Cyl + 2 Nozzle, 1.5 m
Radar Cross Section
3.727 m², Large (>1 m²)

Expand to show TLE details & history
Last TLE update: 10 hours ago

TLE from 10 hours ago
0 PSLV R/B
1 41878U 16074B   26119.24462870  .00000089  00000-0  57676-4 0  9990
2 41878  98.6280 208.5426 0002501  13.8426 346.2822 14.24152162488007
Epoch: 2026-04-29T05:52Z
TLE epoch observation values (Epoch: 2026-04-29T05:52:15.919Z)
Latitude
0.00005°
Longitude
-96.7321°
Altitude
812.52 km
Speed
7.448 km/s
True Right ascension
13h 54m 10s
True Declination
0° 00' 00"
Sunlit
Object was in full shadow at epoch
Visualization orbit readout
Latitude
Unknown
Longitude
Unknown
Altitude
Unknown
Speed
Unknown
Apparent Right ascension
Unknown
Apparent Declination
Unknown
Sunlit
N/A
Visualization observer readout
Local Sidereal Time
23:38:26
Azimuth
Unknown
Elevation
Unknown
Doppler factor
Unknown
Orbital elements
Apogee altitude
810.291 km
Perigee altitude
806.696 km
Semi-major axis
7,186.631 km
Eccentricity
0.00025
Inclination
98.628°
RAAN
208.5426°
Arg. of periapsis
13.8426°
True anomaly
346.2754°
Mean anomaly
346.2822°
Eccentric anomaly
346.2788°
Mean motion
3.5625 °/min
Orbital period
101.05 mins
BSTAR
0.000057676
Loading maneuver chart data...
Computing Atmospheric mass density...
Loading historical data...
Loading historical data...
Loading historical data...
Loading historical data...
Loading historical data...
Loading historical data...
Loading historical data...
Other satellites on launch #74 in the year 2016 (2016-12-07 UTC)

Documentation

Showing up to 5 results
|